YT1XN Weather Reports


time (UTC)temp
C
wind
direction
speed
KPH
gust
KPH
rain 1hr
cm
rain 24hr
cm
rain mn
cm
humidity
%
barometer
mb
20260506094503 25 262 4.8 14.5 0.00 0.00 0.00 48 1014.8
20260506094003 25 227 4.8 14.5 0.00 0.00 0.00 47 1014.9
20260506093502 25 260 3.2 12.9 0.00 0.00 0.00 48 1014.9
20260506093003 25 225 3.2 11.3 0.00 0.00 0.00 46 1014.9
20260506092503 25 113 1.6 6.4 0.00 0.00 0.00 48 1014.9
20260506092002 25 306 3.2 8.0 0.00 0.00 0.00 46 1014.9
20260506091502 25 200 1.6 8.0 0.00 0.00 0.00 47 1015.0
20260506091003 25 172 1.6 6.4 0.00 0.00 0.00 46 1015.0
20260506090503 25 211 3.2 6.4 0.00 0.00 0.00 49 1015.0
20260506090003 24 254 3.2 11.3 0.00 0.00 0.00 50 1015.0
20260506085500 24 263 1.6 8.0 0.00 0.00 0.00 47 1015.0
20260506085003 24 234 3.2 11.3 0.00 0.00 0.00 46 1015.0
20260506084502 24 234 4.8 11.3 0.00 0.00 0.00 48 1015.1
20260506084000 24 202 4.8 9.7 0.00 0.00 0.00 50 1015.0
20260506083503 23 225 1.6 9.7 0.00 0.00 0.00 50 1015.0
20260506083003 23 225 1.6 4.8 0.00 0.00 0.00 51 1015.0
20260506082503 23 212 1.6 6.4 0.00 0.00 0.00 50 1015.0
20260506082000 23 203 1.6 6.4 0.00 0.00 0.00 53 1015.0
20260506081503 23 297 1.6 6.4 0.00 0.00 0.00 51 1015.0
20260506081003 22 253 1.6 4.8 0.00 0.00 0.00 51 1015.0
20260506080503 22 148 1.6 8.0 0.00 0.00 0.00 49 1014.9
20260506073503 21 229 1.6 4.8 0.00 0.00 0.00 58 1015.2
20260506073002 21 323 3.2 6.4 0.00 0.00 0.00 61 1015.2
20260506072503 20 221 3.2 6.4 0.00 0.00 0.00 61 1015.2
20260506072003 20 251 1.6 6.4 0.00 0.00 0.00 61 1015.3
20260506071503 20 192 1.6 4.8 0.00 0.00 0.00 60 1015.3
20260506071003 20 161 1.6 4.8 0.00 0.00 0.00 61 1015.3
20260506070503 19 253 1.6 6.4 0.00 0.00 0.00 64 1015.2
20260506062503 18 154 4.8 11.3 0.00 0.00 0.00 67 1015.4
20260506062003 17 150 3.2 11.3 0.00 0.00 0.00 67 1015.4
20260506061500 17 110 1.6 4.8 0.00 0.00 0.00 69 1015.4
20260506061001 17 238 1.6 4.8 0.00 0.00 0.00 69 1015.6
20260506060503 17 192 1.6 6.4 0.00 0.00 0.00 70 1015.4
20260506050503 16 85 4.8 8.0 0.00 0.00 0.00 69 1015.0
20260506045003 16 86 6.4 8.0 0.00 0.00 0.00 68 1015.2
20260506044503 15 82 6.4 9.7 0.00 0.00 0.00 68 1015.1
20260506044003 15 80 4.8 8.0 0.00 0.00 0.00 69 1015.2
20260506043503 15 77 4.8 6.4 0.00 0.00 0.00 68 1015.2
20260506042503 15 76 1.6 4.8 0.00 0.00 0.00 67 1014.9
20260506042000 15 76 3.2 4.8 0.00 0.00 0.00 67 1014.9
20260506041500 15 76 3.2 4.8 0.00 0.00 0.00 68 1014.9
20260506041003 15 76 3.2 6.4 0.00 0.00 0.00 68 1014.9
20260506040500 15 80 3.2 6.4 0.00 0.00 0.00 68 1015.0
20260506040004 15 64 1.6 6.4 0.00 0.00 0.00 69 1015.0
20260506035503 15 49 3.2 6.4 0.00 0.00 0.00 69 1015.0
20260506034503 15 88 3.2 6.4 0.00 0.00 0.00 68 1015.0
20260506034002 15 88 3.2 6.4 0.00 0.00 0.00 67 1015.0
20260506032503 15 74 4.8 8.0 0.00 0.00 0.00 68 1015.0
20260506031001 14 81 4.8 6.4 0.00 0.00 0.00 68 1015.0
20260506030500 14 77 4.8 6.4 0.00 0.00 0.00 68 1014.9
20260506030003 14 76 3.2 6.4 0.00 0.00 0.00 68 1015.0
20260506025500 14 75 3.2 4.8 0.00 0.00 0.00 68 1015.0
20260506024458 14 69 3.2 4.8 0.00 0.00 0.00 67 1014.8
20260506024000 14 80 3.2 4.8 0.00 0.00 0.00 67 1014.8
20260506023502 14 80 3.2 4.8 0.00 0.00 0.00 68 1014.9
20260506023000 14 80 3.2 4.8 0.00 0.00 0.00 68 1014.9
20260506022500 14 80 1.6 4.8 0.00 0.00 0.00 68 1014.8
20260506022000 14 80 1.6 4.8 0.00 0.00 0.00 69 1014.8
20260506021500 14 80 3.2 4.8 0.00 0.00 0.00 68 1014.7
20260506021000 14 80 3.2 4.8 0.00 0.00 0.00 68 1014.8
20260506020503 14 85 3.2 4.8 0.00 0.00 0.00 67 1014.8
20260506015957 14 98 3.2 4.8 0.00 0.00 0.00 67 1014.8
20260506015000 14 132 0.0 3.2 0.00 0.00 0.00 67 1014.8
20260506014459 14 132 0.0 3.2 0.00 0.00 0.00 68 1014.6
20260506014002 14 132 0.0 3.2 0.00 0.00 0.00 68 1014.7
20260506013500 14 132 0.0 1.6 0.00 0.00 0.00 68 1014.7
20260506013000 14 132 1.6 3.2 0.00 0.00 0.00 68 1014.6
20260506012503 14 132 1.6 3.2 0.00 0.00 0.00 68 1014.6
20260506012000 14 132 0.0 3.2 0.00 0.00 0.00 69 1014.5
20260506011502 14 132 1.6 3.2 0.00 0.00 0.00 67 1014.4
20260506011002 15 132 1.6 3.2 0.00 0.00 0.00 66 1014.3
20260506010500 15 149 0.0 3.2 0.00 0.00 0.00 66 1014.4
20260506005959 15 235 1.6 4.8 0.00 0.00 0.00 66 1014.4
20260506005000 15 227 3.2 4.8 0.00 0.00 0.00 66 1014.4
20260506004500 15 225 1.6 4.8 0.00 0.00 0.00 66 1014.2
20260506004000 15 229 1.6 4.8 0.00 0.00 0.00 67 1014.3
20260506003500 15 217 3.2 4.8 0.00 0.00 0.00 67 1014.3
20260506002959 15 164 3.2 8.0 0.00 0.00 0.00 66 1014.3
20260506002459 15 169 4.8 8.0 0.00 0.00 0.00 67 1014.4
20260506001959 15 139 3.2 6.4 0.00 0.00 0.00 67 1014.4
20260506001500 15 138 1.6 4.8 0.00 0.00 0.00 68 1014.3
20260506000959 15 148 1.6 4.8 0.00 0.00 0.00 67 1014.4
20260506000459 15 135 1.6 3.2 0.00 0.00 0.00 67 1014.3
20260506000003 15 148 0.0 3.2 0.00 0.00 0.00 67 1014.3
20260505235500 15 199 0.0 0.0 0.00 0.00 0.00 66 1014.3
20260505235003 15 198 0.0 1.6 0.00 0.00 0.00 66 1014.2
20260505234500 16 198 0.0 1.6 0.00 0.00 0.00 66 1014.3
20260505233503 16 244 0.0 0.0 0.00 0.00 0.00 66 1014.2
20260505232959 16 244 0.0 0.0 0.00 0.00 0.00 66 1014.3
20260505232500 16 244 0.0 0.0 0.00 0.00 0.00 66 1014.2
20260505232000 16 244 0.0 1.6 0.00 0.00 0.00 66 1014.3
20260505231500 16 244 0.0 3.2 0.00 0.00 0.00 66 1014.2
20260505231000 16 257 1.6 3.2 0.00 0.00 0.00 65 1014.2
20260505230503 16 257 1.6 3.2 0.00 0.00 0.00 65 1014.3
20260505230003 16 257 1.6 3.2 0.00 0.00 0.00 64 1014.4
20260505225503 16 257 1.6 3.2 0.00 0.00 0.00 64 1014.3
20260505225000 16 355 3.2 8.0 0.00 0.00 0.00 64 1014.4
20260505224003 16 27 4.8 9.7 0.00 0.00 0.00 64 1014.3
20260505223002 16 5 3.2 8.0 0.00 0.00 0.00 63 1014.5
20260505222500 17 348 3.2 6.4 0.00 0.00 0.00 63 1014.5
20260505222003 17 11 4.8 8.0 0.00 0.00 0.00 62 1014.5
20260505221500 17 350 6.4 16.1 0.00 0.00 0.00 63 1014.5
20260505221002 16 338 6.4 16.1 0.00 0.00 0.00 63 1014.5
20260505220503 16 17 6.4 12.9 0.00 0.00 0.00 63 1014.5
20260505220008 16 355 4.8 9.7 0.00 0.00 0.00 63 1014.5
20260505215503 16 22 3.2 8.0 0.00 0.00 0.00 63 1014.5
20260505215003 16 350 1.6 4.8 0.00 0.00 0.00 62 1014.6
20260505214503 16 355 1.6 4.8 0.00 0.00 0.00 62 1014.6
20260505214003 16 19 0.0 3.2 0.00 0.00 0.00 61 1014.6
20260505213003 17 313 1.6 3.2 0.00 0.00 0.00 58 1014.6
20260505212502 17 293 3.2 9.7 0.00 0.00 0.00 57 1014.7
20260505212003 17 280 3.2 11.3 0.00 0.00 0.00 56 1014.6
20260505210503 18 296 3.2 8.0 0.00 0.00 0.00 54 1014.5
20260505210003 18 282 4.8 14.5 0.00 0.00 0.00 53 1014.5
20260505205503 18 284 6.4 14.5 0.00 0.00 0.00 52 1014.5
20260505205000 18 277 6.4 14.5 0.00 0.00 0.00 52 1014.4
20260505204503 18 289 4.8 12.9 0.00 0.00 0.00 51 1014.4
20260505204003 18 301 4.8 16.1 0.00 0.00 0.00 50 1014.3
20260505203003 18 148 4.8 14.5 0.00 0.00 0.00 49 1014.0
20260505202503 18 292 3.2 12.9 0.00 0.00 0.00 49 1014.0
20260505202003 18 277 1.6 14.5 0.00 0.00 0.00 48 1013.9
20260505201503 18 347 1.6 14.5 0.00 0.00 0.00 48 1013.9
20260505200503 18 276 1.6 11.3 0.00 0.00 0.00 49 1013.6
20260505200004 18 276 1.6 11.3 0.00 0.00 0.00 50 1013.6
20260505195503 18 306 1.6 8.0 0.00 0.00 0.00 51 1013.4
20260505195003 18 220 1.6 8.0 0.00 0.00 0.00 52 1013.5
20260505194503 18 306 4.8 14.5 0.00 0.00 0.00 54 1013.4
20260505193503 20 265 4.8 11.3 0.00 0.00 0.00 50 1013.5
20260505193003 20 294 3.2 8.0 0.00 0.00 0.00 45 1013.2
20260505192503 20 236 1.6 4.8 0.00 0.00 0.00 44 1013.1
20260505192003 21 249 1.6 3.2 0.00 0.00 0.00 43 1012.9
20260505191504 21 14 0.0 3.2 0.00 0.00 0.00 43 1012.8
20260505190503 22 14 1.6 4.8 0.00 0.00 0.00 38 1012.6
20260505185500 22 21 1.6 6.4 0.00 0.00 0.00 39 1012.5
20260505185002 22 23 0.0 3.2 0.00 0.00 0.00 39 1012.5
20260505184503 21 66 0.0 1.6 0.00 0.00 0.00 39 1012.4
20260505184003 21 66 0.0 1.6 0.00 0.00 0.00 40 1012.4
20260505183503 21 66 1.6 4.8 0.00 0.00 0.00 40 1012.4
20260505183003 22 66 3.2 6.4 0.00 0.00 0.00 41 1012.3
20260505182503 22 64 4.8 6.4 0.00 0.00 0.00 41 1012.3
20260505182003 22 67 6.4 8.0 0.00 0.00 0.00 41 1012.3
20260505181503 22 66 6.4 8.0 0.00 0.00 0.00 41 1012.2
20260505180503 22 66 4.8 6.4 0.00 0.00 0.00 41 1012.1
20260505180004 22 64 4.8 6.4 0.00 0.00 0.00 41 1012.2
20260505175503 22 65 4.8 6.4 0.00 0.00 0.00 41 1012.2
20260505175003 22 67 4.8 6.4 0.00 0.00 0.00 41 1012.1
20260505174503 22 67 4.8 6.4 0.00 0.00 0.00 41 1012.1
20260505174003 22 66 4.8 8.0 0.00 0.00 0.00 41 1012.0
20260505173503 22 71 6.4 8.0 0.00 0.00 0.00 41 1012.0
20260505173004 22 69 6.4 8.0 0.00 0.00 0.00 41 1011.9
20260505172503 23 70 6.4 8.0 0.00 0.00 0.00 42 1011.9
20260505172003 23 78 6.4 8.0 0.00 0.00 0.00 42 1011.9
20260505171502 23 78 6.4 9.7 0.00 0.00 0.00 42 1011.9
20260505170503 23 74 6.4 11.3 0.00 0.00 0.00 42 1011.8
20260505170000 23 81 6.4 11.3 0.00 0.00 0.00 42 1011.7
20260505165003 23 84 6.4 11.3 0.00 0.00 0.00 41 1011.8
20260505164504 23 78 6.4 9.7 0.00 0.00 0.00 41 1011.9
20260505164003 23 75 6.4 8.0 0.00 0.00 0.00 40 1011.9
20260505163503 23 84 4.8 8.0 0.00 0.00 0.00 40 1012.0
20260505163003 24 72 3.2 6.4 0.00 0.00 0.00 40 1012.1
20260505162503 24 68 3.2 4.8 0.00 0.00 0.00 40 1012.1
20260505162004 24 74 3.2 4.8 0.00 0.00 0.00 40 1012.1
20260505161003 25 83 1.6 4.8 0.00 0.00 0.00 37 1012.2
20260505160504 25 83 3.2 6.4 0.00 0.00 0.00 37 1012.1
20260505152503 26 148 3.2 8.0 0.00 0.00 0.00 35 1012.5
20260505152003 26 167 6.4 12.9 0.00 0.00 0.00 35 1012.5
20260505151503 26 94 8.0 12.9 0.00 0.00 0.00 34 1012.6
20260505151003 26 90 6.4 12.9 0.00 0.00 0.00 34 1012.5
20260505150503 26 91 3.2 12.9 0.00 0.00 0.00 35 1012.6
20260505125002 27 126 3.2 6.4 0.00 0.00 0.00 34 1014.3
20260505124502 27 90 3.2 6.4 0.00 0.00 0.00 35 1014.4
20260505124003 27 132 3.2 6.4 0.00 0.00 0.00 33 1014.3
20260505123503 27 255 3.2 6.4 0.00 0.00 0.00 36 1014.5
20260505123003 27 286 3.2 6.4 0.00 0.00 0.00 36 1014.5
20260505122503 27 304 3.2 11.3 0.00 0.00 0.00 38 1014.7
20260505122003 27 260 1.6 8.0 0.00 0.00 0.00 37 1014.8
20260505121003 28 238 3.2 6.4 0.00 0.00 0.00 31 1014.8
20260505120500 28 288 1.6 6.4 0.00 0.00 0.00 35 1015.0
20260505115503 28 237 4.8 11.3 0.00 0.00 0.00 35 1015.0
20260505115003 27 211 3.2 8.0 0.00 0.00 0.00 36 1015.1
20260505114501 27 232 3.2 8.0 0.00 0.00 0.00 36 1015.0
20260505114003 27 232 3.2 8.0 0.00 0.00 0.00 37 1015.1
20260505113503 27 76 1.6 4.8 0.00 0.00 0.00 33 1015.2
20260505113003 27 123 1.6 6.4 0.00 0.00 0.00 33 1015.2
20260505112003 27 65 3.2 11.3 0.00 0.00 0.00 34 1015.2
20260505111501 27 161 3.2 9.7 0.00 0.00 0.00 35 1015.3
20260505111003 27 340 4.8 11.3 0.00 0.00 0.00 34 1015.3
20260505110503 27 245 4.8 11.3 0.00 0.00 0.00 37 1015.3
20260505102003 25 208 3.2 9.7 0.00 0.00 0.00 41 1015.6
20260505101503 25 194 3.2 6.4 0.00 0.00 0.00 42 1015.6
20260505101004 25 121 3.2 9.7 0.00 0.00 0.00 42 1015.6
20260505100503 25 236 3.2 8.0 0.00 0.00 0.00 45 1015.7
20260505100005 25 215 3.2 11.3 0.00 0.00 0.00 46 1015.7
20260505095503 25 329 4.8 9.7 0.00 0.00 0.00 43 1015.9
20260505095003 25 270 3.2 12.9 0.00 0.00 0.00 46 1015.9